Weather in Shyrokyne

Ukraine / Donetsk Region     47°05′58″N   37°49′17″E
temp.,
°C
wind,
m/s
gust,
m/s
humid.,
%
clouds,
%
prec.,
mm/h
press.,
hPa
HPBL,
m
6 may, thu
thu600:00+14e5663100 0.0 1016209
03:00+13ese6870100 0.0 1015296
06:00+13ese7868100 0.0 1015363
09:00+13ese786877 0.0 1014410
12:00+15e4567100 0.0 1014303
15:00+16e1265100 0.0 1013163
18:00+15w226799 0.0 101350
21:00+15w33705 0.0 101335
7 may, fri
fri700:00+14wnw33705 0.0 101476
03:00+13nw347097 0.0 1014110
06:00+13nnw236999 0.0 1015108
09:00+15wsw11655 0.0 1016156
12:00+15ssw4469100 0.0 1017194
15:00+15ssw6773100 0.0 1017217
18:00+15sw56725 0.0 1016154
21:00+15sw457776 0.0 101792
8 may, sat
sat800:00+15ssw5777100 0.0 1016167
03:00+15ssw5877100 0.0 1015232
06:00+15ssw4777100 0.0 1015253
09:00+15sse4678100 0.0 1014269
12:00+15s3573100 0.0 1014196
15:00+15sw46715 0.0 1012177
18:00+16wsw34705 0.0 101192
21:00+16sw3472100 0.0 101045
9 may, sun
sun900:00+12nnw111383100 0.0 1011470
03:00+9n14177991 0.0 1012791
06:00+7n121685100 3.8 1015954
09:00+10nnw9126417 4.9 10171380
12:00+13nw9114893 0.0 10192261
15:00+14nw10114770 0.0 10202034
18:00+14nw8104612 0.0 10212146
21:00+12nw69571 0.0 1024861
10 may, mon
mon1000:00+11nnw68645 0.0 1025486
03:00+10nw57722 0.0 1025331
06:00+9nw710705 0.0 1025364
09:00+12nw78554 0.0 1025883
12:00+14nw794267 0.0 10232400
15:00+16nw91142100 0.0 10212010
18:00+16nnw71149100 0.0 10202257
21:00+13nw71358100 0.1 10191499